Theta_e
308 306 308 308 306 308 308 309 310 309 309 311 310 308 305 302 301 300 298 297 296 295 294 293 293 294 296 298 301 303 307 308 314 316 313 311 308 307 311 313 314 314 314 316
308 307 307 306 306 308 309 310 310 309 309 310 309 308 304 302 301 300 298 297 296 295 293 292 292 293 294 295 296 301 303 306 307 308 306 304 302 301 301 303 305 306 307 309
310 312 308 309 309 309 309 309 310 312 309 307 306 307 306 302 300 299 298 297 296 294 293 291 291 291 293 294 295 296 298 301 303 304 305 304 302 301 300 298 298 297 299 300
309 309 311 309 310 309 312 309 310 312 310 313 306 312 307 303 301 300 298 296 295 293 292 291 290 290 290 291 293 294 296 297 298 299 300 298 294 290 289 289 290 290 291 292
315 311 311 312 312 310 314 308 308 308 308 308 309 309 307 303 303 301 298 296 294 293 291 290 289 289 289 289 289 290 291 292 292 293 293 291 288 287 287 287 287 287 286 286
312 307 309 311 308 309 305 308 306 304 305 310 309 309 309 306 305 301 298 296 295 293 291 290 289 288 288 288 288 288 287 287 287 288 287 287 286 286 286 285 285 285 286 286
310 310 308 307 308 307 308 311 315 311 310 313 307 307 308 307 304 301 300 297 294 293 291 289 289 287 287 288 287 287 287 286 286 286 286 285 285 285 285 285 285 285 285 285
314 316 309 307 310 310 309 311 314 310 311 311 308 314 313 303 300 300 299 296 294 292 291 290 289 287 287 287 287 287 286 285 286 286 286 286 286 286 285 285 285 285 285 284
314 317 306 307 307 309 309 311 308 309 301 309 310 308 305 301 300 298 297 295 294 292 291 290 290 288 286 286 286 286 286 286 286 286 286 286 286 286 286 286 286 285 284 284
313 314 309 307 307 307 310 308 314 309 308 306 307 309 307 305 302 299 298 296 294 293 292 289 289 289 287 286 286 286 286 286 286 286 287 286 286 286 286 286 285 284 283 283
309 312 311 310 310 310 311 312 309 309 305 304 302 305 303 305 302 300 299 297 295 294 292 289 289 289 288 287 286 286 286 286 286 287 287 287 286 286 286 286 285 284 283 282
310 310 310 312 307 305 308 310 311 312 310 306 307 310 303 303 301 300 299 297 294 293 292 290 290 289 288 287 286 286 286 286 287 287 287 287 286 286 286 286 285 284 282 281
311 310 305 308 308 307 309 307 309 306 303 305 307 308 302 301 300 299 298 296 294 292 290 290 288 287 287 287 286 286 286 287 287 287 287 287 287 286 286 285 285 283 281 280
310 309 308 314 310 308 310 309 306 307 305 307 310 309 306 304 302 299 298 297 294 293 290 289 288 287 287 287 287 287 287 287 287 287 286 286 286 286 285 285 284 282 280 279
310 313 306 305 303 304 304 308 307 307 310 310 310 308 304 304 302 299 297 296 295 294 289 287 288 287 288 288 287 287 287 287 287 287 286 286 285 285 284 282 281 279 278 278
302 306 301 299 300 300 304 304 304 306 304 304 303 304 301 299 298 296 294 293 292 292 290 287 287 287 288 288 288 288 288 287 287 286 285 285 283 282 281 279 278 277 277 276
303 300 301 306 294 298 306 300 303 303 301 303 305 305 290 293 294 293 292 290 291 292 291 287 286 287 287 288 288 288 288 287 286 285 284 283 281 280 279 278 277 277 276 275
299 298 300 296 294 306 300 290 293 300 299 297 292 290 291 291 291 291 289 289 289 289 289 287 287 287 288 288 288 288 287 285 284 284 283 281 279 279 278 278 277 276 275 274
297 298 294 301 297 298 298 290 290 291 292 291 292 291 290 289 288 288 286 286 287 286 287 288 289 289 288 288 287 286 285 284 283 282 280 279 278 277 277 276 275 274 272 271
296 297 306 291 301 301 293 289 288 290 291 287 289 288 288 287 286 286 287 285 285 287 287 288 289 288 288 288 287 285 284 283 281 279 278 277 276 275 275 273 272 271 270 269
296 296 303 295 301 296 290 288 288 291 291 281 286 287 286 287 286 287 287 286 286 287 288 288 288 288 289 288 286 284 283 281 279 277 276 275 274 274 273 271 271 270 269 268
293 297 296 296 297 298 287 288 291 291 288 287 286 286 287 287 287 286 285 285 285 286 287 288 288 288 288 286 284 282 280 278 276 275 274 274 273 272 272 270 270 269 268 267
290 290 290 294 294 289 288 290 290 289 288 287 287 286 286 286 286 286 285 284 285 286 287 287 287 287 285 283 282 280 278 276 275 274 273 272 272 271 270 269 269 268 267 265
288 286 288 289 288 288 288 288 288 288 288 288 287 287 286 286 286 286 285 284 284 286 286 287 285 283 282 281 280 278 276 275 274 273 272 271 270 270 269 268 268 266 266 264
289 287 286 287 289 288 287 287 288 287 287 287 286 286 286 285 285 285 285 283 284 286 286 284 284 282 280 279 276 275 274 273 272 271 269 269 268 267 267 267 266 266 265 265
288 288 289 288 289 289 289 288 287 287 287 286 285 285 284 284 284 284 283 285 285 284 284 281 280 279 277 276 275 274 273 271 270 269 268 267 267 266 265 265 265 267 265 267
Wind_Speed
1 3 8 12 9 3 5 4 5 3 3 2 6 6 4 5 7 7 6 6 6 8 10 17 22 24 27 30 31 31 31 29 25 24 28 29 29 28 29 26 23 22 21 20
3 7 9 4 6 5 3 3 5 5 2 4 4 6 4 5 3 4 6 6 6 5 7 16 21 27 30 29 30 32 31 28 29 30 26 24 27 28 27 25 24 22 20 20
7 5 5 6 4 6 4 6 5 6 2 0 5 5 4 3 4 5 4 3 4 5 6 8 16 23 26 30 31 32 32 30 24 23 22 20 22 24 24 26 25 25 22 20
6 4 6 5 5 7 4 7 5 4 3 3 2 5 4 4 4 4 6 5 5 5 5 8 13 18 22 24 27 30 31 31 29 28 29 30 31 30 27 27 26 28 28 28
6 6 6 5 5 7 5 4 6 3 3 3 2 1 6 4 3 5 6 5 5 5 6 6 9 13 15 19 24 27 30 30 29 30 30 32 34 30 27 27 27 27 28 29
4 1 5 6 3 4 8 5 6 5 3 0 5 6 4 4 3 5 4 6 6 6 5 7 10 11 14 17 22 24 28 28 28 29 29 30 29 27 27 26 26 26 25 26
2 4 2 3 6 2 3 5 1 3 2 5 1 2 8 5 3 7 13 10 8 7 6 6 8 9 11 14 18 21 24 26 26 27 27 26 26 25 25 24 23 23 24 24
7 4 9 6 4 7 5 6 5 7 3 3 2 5 5 2 3 6 11 10 8 7 6 5 8 10 12 14 15 18 20 23 22 23 23 22 21 22 22 21 20 20 20 20
6 4 2 2 3 4 4 3 2 6 2 1 4 5 2 2 1 4 9 9 9 8 7 8 11 11 11 12 13 15 17 19 19 19 19 18 18 18 18 18 17 18 18 19
7 2 1 2 3 5 4 6 4 3 1 5 4 4 5 5 7 6 8 9 8 8 8 7 12 12 11 12 12 13 14 16 16 16 15 15 15 15 15 15 17 17 17 18
6 4 1 4 5 9 3 3 4 4 4 5 2 5 5 6 10 13 12 11 9 9 8 8 14 14 13 13 13 13 13 13 13 12 11 10 10 11 12 15 17 18 19 21
7 5 4 7 3 2 2 6 7 5 5 2 1 7 2 3 10 13 12 10 8 7 9 12 17 17 17 17 16 14 13 12 10 8 6 6 7 9 12 14 16 18 19 22
9 2 2 6 2 2 4 5 3 4 4 8 5 6 3 5 7 8 9 9 8 8 8 8 16 19 21 20 18 17 14 11 9 6 3 0 3 7 10 14 17 20 23 26
5 5 7 9 6 5 5 6 6 6 5 5 13 13 3 4 7 7 8 6 7 7 8 8 8 18 23 20 19 17 15 12 9 8 7 6 6 9 12 15 19 21 25 27
3 4 3 4 3 3 3 6 12 10 14 11 12 13 7 9 9 9 8 6 5 6 7 8 9 17 21 19 19 17 15 13 12 12 11 10 9 9 11 13 17 21 24 26
2 3 3 1 3 4 3 6 6 13 2 3 3 13 7 3 4 5 8 7 7 7 7 8 11 14 20 22 22 19 18 18 17 17 16 12 11 10 11 13 17 21 23 25
6 7 4 4 2 3 9 8 14 6 6 8 11 13 4 5 8 8 8 7 7 8 8 8 11 19 23 22 22 21 21 19 20 18 16 14 12 11 13 16 19 23 25 27
7 5 2 3 2 6 2 2 3 12 7 8 0 5 6 5 4 3 5 6 8 8 7 8 15 19 20 20 20 21 19 20 19 18 16 14 12 13 15 18 21 23 24 26
1 6 3 5 4 7 6 6 8 8 9 10 10 7 5 5 4 4 6 7 7 8 14 17 17 17 16 16 16 16 16 18 18 17 15 13 12 14 16 18 20 21 23 25
3 4 7 4 5 9 2 3 5 5 6 9 8 5 7 6 2 5 5 6 9 15 15 16 13 13 14 18 18 18 19 20 19 16 13 12 13 14 17 18 19 20 21 24
3 1 9 5 5 7 5 5 4 6 6 4 7 6 7 5 6 5 3 5 16 19 20 15 14 18 21 20 20 22 21 21 17 14 12 12 13 15 16 18 18 20 22 24
7 8 4 3 3 10 8 4 9 5 2 6 6 7 9 8 7 7 8 6 9 16 20 18 18 21 23 21 22 23 21 17 15 13 12 12 13 14 16 18 19 20 21 23
3 6 6 9 6 1 14 5 9 6 6 6 6 7 11 9 8 8 7 8 14 20 26 23 19 20 20 20 22 22 19 16 14 13 13 13 13 15 15 18 19 20 20 21
5 4 3 3 4 5 9 5 3 6 8 6 7 7 7 7 8 7 6 7 11 19 21 24 20 21 23 22 22 20 16 14 13 14 13 13 15 15 15 17 17 20 20 20
4 7 6 2 1 2 6 8 9 8 7 5 5 7 9 7 8 8 7 7 15 19 17 17 21 24 24 24 20 16 14 14 14 14 14 14 14 15 17 17 17 18 20 18
5 6 5 4 7 6 5 8 10 8 8 10 8 6 7 10 10 7 8 18 19 17 14 15 18 19 18 17 17 16 15 14 14 15 14 14 14 15 16 18 21 17 17 17
Wind_Direction
27 127 209 197 200 162 136 173 213 261 200 218 241 260 1 48 67 74 67 61 52 44 16 39 50 56 61 62 63 62 67 72 86 87 79 75 74 71 67 62 56 49 44 42
57 229 230 159 163 178 157 171 246 279 283 184 306 280 67 42 56 104 116 92 73 53 24 28 47 61 65 66 68 70 71 72 76 80 85 87 80 74 74 68 62 57 54 50
178 213 134 167 165 158 202 185 193 215 336 337 332 290 189 64 106 90 71 87 71 74 56 22 38 59 64 66 66 69 71 72 80 92 100 98 88 78 66 58 55 51 49 49
234 253 176 176 198 148 214 206 163 169 128 228 30 283 288 185 154 144 141 128 111 75 61 43 50 62 67 72 78 78 77 77 76 79 82 81 81 77 72 68 64 59 56 52
234 180 186 189 199 159 216 117 143 127 116 67 293 244 258 117 221 215 196 164 145 138 120 95 69 76 77 79 81 83 84 83 83 83 84 85 84 84 80 74 68 61 55 53
231 235 179 201 102 160 144 81 46 45 92 292 226 178 269 186 213 168 176 183 173 167 143 128 116 103 90 89 88 89 87 85 84 83 84 84 84 80 73 67 63 57 52 48
158 210 194 153 93 57 112 106 326 341 357 231 107 164 243 166 176 190 181 183 183 182 174 154 128 112 104 99 97 96 93 89 87 85 82 81 79 75 71 64 57 51 45 40
169 200 171 185 192 169 179 165 162 216 205 260 316 232 271 306 304 218 164 163 170 181 185 178 149 142 128 117 110 102 101 99 94 89 86 83 78 73 68 59 52 47 41 34
160 254 68 74 127 129 187 185 156 103 55 30 233 274 260 82 48 124 149 160 183 183 192 182 174 166 146 131 121 118 113 104 98 95 92 84 77 69 61 53 44 37 28 22
204 99 49 130 90 38 140 157 85 4 201 261 271 272 239 221 203 173 178 203 203 194 183 183 187 177 164 150 142 138 125 116 109 103 94 85 73 61 51 39 31 24 16 10
153 112 243 123 202 172 137 175 68 123 144 183 278 248 208 212 177 187 203 208 202 200 183 188 192 189 180 171 165 153 142 132 124 113 101 84 67 50 36 25 17 9 2 358
192 133 162 195 131 98 169 183 157 162 216 254 195 257 24 252 175 182 203 207 202 188 190 193 194 191 191 188 181 176 164 154 142 128 109 77 46 24 12 6 0 354 350 348
179 186 79 354 43 29 205 194 160 103 81 193 167 263 8 82 157 195 197 207 192 196 194 189 192 196 200 199 192 188 182 175 168 165 167 182 346 347 349 347 345 343 341 340
119 143 165 206 184 138 181 201 188 160 183 178 232 257 177 199 198 194 215 193 204 205 200 195 191 202 209 207 202 201 201 201 205 218 237 263 298 322 330 332 333 332 333 333
132 185 104 47 71 94 208 197 187 191 220 210 248 232 184 206 206 204 193 205 206 222 211 204 203 210 212 213 213 216 220 226 233 238 246 255 272 291 304 315 322 326 329 330
21 160 120 34 358 40 270 236 188 220 180 223 229 260 173 192 198 183 218 218 236 238 227 214 211 205 213 216 218 221 228 231 232 232 231 234 252 272 294 311 320 325 328 329
153 137 122 230 61 43 281 190 199 180 197 175 214 238 141 197 213 218 233 224 226 235 231 210 204 208 216 221 225 229 233 232 228 222 220 230 247 270 297 312 321 326 330 329
135 109 67 138 54 229 227 95 109 212 241 216 309 223 193 169 177 199 207 204 226 228 226 220 216 217 224 233 236 238 235 227 219 220 225 235 254 282 302 313 320 324 324 325
133 129 129 162 198 314 252 184 164 169 244 197 210 227 153 130 126 256 228 212 217 213 217 215 211 211 219 224 229 230 221 213 215 219 228 244 270 293 304 311 317 321 320 321
43 43 181 139 184 220 337 158 141 121 278 220 191 185 153 124 156 248 199 207 225 223 220 212 207 218 232 238 236 226 218 216 217 223 236 259 282 297 307 312 316 318 320 317
93 48 199 185 220 276 205 183 164 121 241 178 173 175 150 179 194 217 197 232 229 223 209 213 221 230 239 242 229 220 219 220 224 231 245 265 284 297 305 309 314 315 315 314
157 163 192 121 194 259 156 87 167 197 142 171 186 181 184 202 220 223 227 235 231 220 218 223 231 239 244 237 222 219 218 222 227 240 256 270 284 295 301 303 309 312 314 314
222 185 180 190 203 38 184 175 203 165 147 203 194 202 199 197 218 227 228 222 228 225 232 240 242 249 244 230 223 220 220 223 233 250 263 276 287 292 299 302 307 309 312 310
240 160 181 117 193 201 210 239 259 187 212 210 216 211 179 210 225 241 235 227 222 235 243 252 249 235 230 221 220 226 226 232 246 258 268 278 284 293 295 298 303 304 304 303
195 131 147 274 263 69 276 232 230 214 226 232 209 214 212 208 246 228 243 234 238 252 257 247 234 235 230 218 216 221 229 242 253 263 270 275 282 289 296 297 301 300 301 296
177 150 166 204 202 176 212 208 214 213 221 228 225 241 227 201 232 217 235 243 247 252 247 234 231 228 221 212 213 223 235 248 256 261 265 270 277 286 290 296 301 296 288 287